Regional Weather Roundup
Issued by NWS Grand Forks, ND

Home | Current Version | Previous Version | Graphics & Text | Print | Product List | Glossary On
Versions: 1 2 3 4 5 6 7 8 9 10 11 12 13 14 15 16 17 18 19 20 21 22 23 24 25 26 27 28 29 30 31 32 33 34 35 36 37 38 39 40 41 42 43 44 45 46 47 48 49 50
753
ASUS43 KFGF 240310
RWRFGF
PRAIRIE TO PINES  WEATHER ROUNDUP
NATIONAL WEATHER SERVICE EASTERN NORTH DAKOTA/GRAND FORKS ND
900 PM CST MON JAN 23 2017

 **SATELLITE DATA USED TO AUGMENT SKY COVER AT AUTOMATED STATIONS**
 *****  WEATHER ACROSS EASTERN NORTH DAKOTA  *****

CITY           SKY/WX    TMP DP  RH WIND       PRES   REMARKS
GRAND FORKS    CLOUDY    28  21  75 W10       29.82R WCI  19
GRAND FRKS AFB CLOUDY    27  21  79 NW14      29.82R WCI  15
DEVILS LAKE    CLOUDY    22  19  89 W15       29.80R WCI   9
FARGO          CLOUDY    33  27  78 CALM      29.83S
WAHPETON ARPT  CLOUDY    32  28  86 CALM      29.83F
$$

 ***** WEATHER ACROSS CENTRAL AND WESTERN NORTH DAKOTA  *****

CITY           SKY/WX    TMP DP  RH WIND       PRES   REMARKS
BISMARCK       CLOUDY    31  24  75 W5        29.82S
MINOT          CLOUDY    23  18  81 W14       29.80R WCI  11
JAMESTOWN      CLOUDY    28  24  85 W3        29.80S
MINOT AFB      NOT AVBL
GARRISON         N/A     23  20  88 NW6       29.80S WCI  16
WILLISTON      CLOUDY    22  18  85 W5        29.83R WCI  16
DICKINSON      CLOUDY    22  20  92 CALM      29.76R
HETTINGER      FOG       21  19  92 NE6       29.79R VSB 1/4 WCI  13
$$

 *****  OTHER AIRPORT OBSERVATIONS IN OUR AREA  *****

CITY           SKY/WX    TMP DP  RH WIND       PRES   REMARKS
WALHALLA       NOT AVBL
GRAFTON AIRPOR CLOUDY    27  25  93 W14       29.82S WCI  15
VALLEY CITY AR CLOUDY    28  28 100 W6        29.83S WCI  22
CANDO          NOT AVBL
CAVALIER APRT  CLOUDY    27  23  86 SW10      29.79R WCI  17
GWINNER        CLOUDY    32  30  93 CALM      29.82F
SHEYENNE NWR     N/A     30  25  81 CALM      29.95S
ROLLA            N/A    N/A N/A N/A MISG        N/A
 ***** THE ABOVE OBSERVATIONS ARE NON NWS ARE NOT QUALITY
       CONTROLLED AND MAY MIS-REPORT RAIN FOR SNOW...
$$

  *****  WEATHER ACROSS NORTHERN MINNESOTA  *****

CITY           SKY/WX    TMP DP  RH WIND       PRES   REMARKS
FLAG ISLAND    CLOUDY    27  23  86 SW5       29.78S WCI  21
WARROAD        CLOUDY    28  25  86 SW8       29.79S WCI  20
ROSEAU         CLOUDY    28  23  80 SW7       29.79S WCI  21
HALLOCK        CLOUDY    28  25  86 SW9       29.79S WCI  20
THF RVR FALLS  CLOUDY    28  24  85 SW8       29.81S WCI  20
BAUDETTE       CLOUDY    29  23  78 CALM      29.79S
WASKISH        CLOUDY    30  27  86 CALM      29.80S
CROOKSTON      CLOUDY    30  25  80 W8        29.83R WCI  23
GREENBUSH NDAW   N/A     27  23  86 SW9         N/A  WCI  17
$$
  *****  WEATHER ACROSS CENTRAL AND WEST MINNESOTA  *****

CITY           SKY/WX    TMP DP  RH WIND       PRES   REMARKS
FOSSTON        CLOUDY    27  21  80 W9        29.82S WCI  17
BEMIDJI        CLOUDY    29  23  78 SW8       29.80S WCI  21
PARK RAPIDS    CLOUDY    30  23  75 NW6       29.80S WCI  24
ELBOW LAKE     CLOUDY    31  26  82 CALM      29.83S FOG
WADENA         CLOUDY    28  25  86 CALM      29.81S
DETROIT LAKES  CLOUDY    30  28  93 NW5       29.82S
MOORHEAD       CLOUDY    30  27  86 CALM      29.84S
FERGUS FALLS   CLOUDY    30  28  93 CALM      29.87S
MORRIS MN      CLOUDY    30  28  93 CALM      29.82S
STAPLES        CLOUDY    28  27  93 CALM      29.82R
$$
  *****  WEATHER ELSEWHERE ACROSS MINNESOTA  *****

CITY           SKY/WX    TMP DP  RH WIND       PRES   REMARKS
DULUTH         CLOUDY    33  32  96 NW5       29.78S FOG
INTRNTL FALLS  CLOUDY    31  25  78 W9        29.78S WCI  23
ELY            CLOUDY    32  32 100 CALM      29.77S FOG
CLOQUET        LGT SNOW  32  30  93 CALM      29.79S
WHEATON        CLOUDY    30  27  86 CALM      29.85F
BRAINERD       CLOUDY    31  26  82 CALM      29.82R
HIBBING        CLOUDY    30  25  81 NW7       29.79S WCI  23
ALEXANDRIA     CLOUDY    30  25  81 N3        29.82F
SAINT CLOUD    CLOUDY    31  27  85 NW5       29.83S
MINNEAPOLIS    CLOUDY    34  27  75 NW5       29.84S
$$

  *****  WEATHER ACROSS SOUTH DAKOTA  *****

CITY           SKY/WX    TMP DP  RH WIND       PRES   REMARKS
SIOUX FALLS    CLOUDY    31  29  92 SE7       29.82S WCI  24
BROOKINGS      CLOUDY    30  27  88 E7        29.79F WCI  23
WATERTOWN      CLOUDY    28  25  88 SE7       29.79R WCI  21
HURON          CLOUDY    31  29  92 SE6       29.80S
SISSETON         N/A     31  29  92 S3        29.82S
ABERDEEN       CLOUDY    29  26  89 E3        29.81F FOG
MITCHELL       CLOUDY    32  29  88 SE15      29.80S WCI  22
PIERRE         CLOUDY    29  26  89 E9        29.76R WCI  20
MOBRIDGE       LGT SNOW  29  24  82 MISG      29.78R
RAPID CITY     CLOUDY    23  21  92 N15       29.72R FOG     WCI  10
$$

  *****  SOME WEATHER IN NEARBY STATES *****

CITY           SKY/WX    TMP DP  RH WIND       PRES   REMARKS
GLASGOW MT     CLOUDY    22  17  81 NW9       29.82S WCI  12
GREAT FALLS MT CLOUDY    18  15  88 N7        29.81R WCI   9
CHEYENNE WY    CLOUDY    32  30  92 E9        29.52F WCI  24
SCOTTSBLUFF NE MOCLDY    35  27  72 NE8       29.57S
OMAHA NE       CLOUDY    33  27  78 SE9       29.84S
DES MOINES IA  CLOUDY    34  28  79 SE3       29.86R
DAVENPORT IA   CLOUDY    34  32  92 W8        29.85R
CHICAGO IL     CLOUDY    36  33  89 NW5       29.80S
EAU CLAIRE WI  CLOUDY    33  33 100 CALM      29.82S FOG
LA CROSSE WI   CLOUDY    36  33  89 N3        29.83F
$$

  *****  SOME NATIONAL WEATHER *****

CITY           SKY/WX    TMP DP  RH WIND       PRES   REMARKS
LA GUARDIA NY  RAIN      39  35  86 NE29G40   29.56F FOG
RALEIGH NC     DRIZZLE   45  41  86 VRB6G16   29.46R
ATLANTA GA     FAIR      50  43  77 NW17G25   29.68R
NEW ORLEANS LA FAIR      56  46  69 W5        29.89S
OKLAHOMA CITY  FAIR      50  32  50 S13       29.70F
ALBUQUERQUE NM MOCLDY    50  26  39 SW10      29.66F
SALT LAKE CITY CLOUDY    34  29  82 N3        29.61R
LOS ANGELES CA FAIR      52  41  66 NW5G20    29.86S
BOISE ID       CLOUDY    30  25  81 NW13      29.67S WCI  20
SEATTLE WA     FAIR      39  36  89 N5        29.94R
$$

*** WEATHER ACROSS MANITOBA...SASKATCHEWAN AND ONTARIO ***
                ***ONTARIO***

CITY           SKY/WX    TMP DP  RH WIND       PRES   REMARKS
GERALDTON      FOG       34  34 100 S2        29.77S VSB 1/8
THUNDER BAY    FLURRIES  32  32 100 W3        29.80S
SIOUX LOOKOUT  CLOUDY    32  32 100 SW3       29.75R FOG
TORONTO        CLOUDY    36  30  80 E12       29.78S
BIG TROUT LK   FLURRIES  25  23  93 E3        29.80R
PICKLE LAKE    NOT AVBL
DRYDEN         CLOUDY    32  30  93 SW7       29.75R
KENORA         LGT SNOW  28  27  93 SW12      29.75S FOG     WCI  18
$$
                *** MANITOBA***

CITY           SKY/WX    TMP DP  RH WIND       PRES   REMARKS
BRANDON        FLURRIES  23  19  86 W14       29.73S WCI  11
DAUPHIN        LGT SNOW  28  27  93 W7        29.71R WCI  21
ISLAND LAKE    LGT SNOW  30  30 100 VRB2      29.74S FOG
PILOT MOUND      N/A     23  19  86 W10         N/A  WCI  12
THE PAS        FLURRIES  18  14  86 N9        29.83S WCI   6
THOMPSON       FLURRIES  16  12  86 N7        29.83F WCI   6
WINNIPEG       FLURRIES  27  23  86 SW8       29.75S WCI  18
LYNN LAKE      FLURRIES   7   5  92 N6        29.87F WCI  -3
CHURCHILL      LGT SNOW  14  12  92 MISG      30.00F DRFTSNOW
GILLAM         FLURRIES  19  18  93 NE9       29.86R WCI   9
$$
                ***SASKATCHEWAN***

CITY           SKY/WX    TMP DP  RH WIND       PRES   REMARKS
ESTEVAN        FLURRIES  21  18  86 W14       29.79R WCI   8
KINDERSLEY     CRYSTALS  10   9  92 NW6       29.84S WCI   1
LLOYDMINSTER   FLURRIES  10   9  92 N5        29.88R WCI   2
PRINCE ALBERT  FLURRIES  14   9  79 N7        29.86R WCI   4
REGINA         CLOUDY    16  12  86 NW14      29.80R WCI   1
YORKTON        FLURRIES  19  18  93 NW13      29.74R WCI   7
N. BATTLEFORD  LGT SNOW  10   9  92 NW9       29.89S WCI  -2
LA RONGE       FLURRIES   9   3  78 N7        29.91S WCI  -3
SASKATOON      FLURRIES  10   7  85 W8        29.87R WCI  -1
SWIFT CURRENT  LGT SNOW  12  10  92 W7        29.79S WCI   2
$$
NOTE: THESE ARE AUTOMATED STATIONS WITH LIMITED QUALITY CONTROL
      "FAIR" INDICATES FEW OR NO CLOUDS BELOW 12,000 FEET WITH NO
      SIGNIFICANT WEATHER AND/OR OBSTRUCTIONS TO VISIBILITY.
      SKY/WX - SKY CONDITION AND SIGNIFICANT WEATHER.
      TMP - AIR TEMPERATURE.    DP   - DEWPOINT TEMPERATURE.
      RH  - RELATIVE HUMIDITY.  PRES - PRESSURE.
      HX  - HEAT INDEX.         WCI  - WIND CHILL INDEX.
$




USA.gov is the U.S. government's official web portal to all federal, state and local government web resources and services.